Weather WX

World > North America > United States > Mississippi

Big Level, Mississippi Regional Weather

Lat: 30.81N, Lon: 89.05W
Wx Zone: MSZ078
Warning FLW WEATHER ALERT - (More Info. Click Here) Warning
Feedback

Big Level, MS Regional Weather

Expires:201906200600;;767910
ASUS44 KJAN 200510
RWRMS 

MISSISSIPPI HOURLY WEATHER ROUNDUP
NATIONAL WEATHER SERVICE JACKSON MS
1200 AM CDT THU JUN 20 2019

NOTE: "FAIR: INDICATES FEW OR NO CLOUDS BELOW 12,000 FEET WITH NO
SIGNIFICANT WEATHER AND/OR OBSTRUCTIONS TO VISIBILITY.


MSZ059>079-200600-
SOUTH MISSISSIPPI
  
CITY           SKY/WX    TMP DP  RH WIND       PRES   REMARKS
BROOKHAVEN     FAIR      79  75  89 NE8       29.84S                  
HATTIESBURG    FAIR      80  74  81 S6        29.85S                  
LAUREL         CLEAR     79  74  85 S6        29.83R                  
MCCOMB         HVY RAIN  79  73  82 SW6       29.85R                  
NATCHEZ        FAIR      79  75  87 S6        29.84R                  
PINE BELT      FAIR      79  75  87 S6        29.85S                  
$$


SKY/WX - Weather  TMP - Temperature  DP - Dew Point  RH - Relative Humidity
WIND - Wind Direction/Speed PRES - Barometric Pressure VSB - Visibility
WCI - Wind Chill Index E13G22 Wind - East Wind 13 mph/Gusts of 22 mph